Caldwell, ID

1:40 AM MST on January 23, 2017 (GMT -0700)
Caldwell Industrial

Weather History for KEUL - January, 2013

Change the Weather History Date:

Wednesday, January 16, 2013

  Actual Average (KBOI) Record (KBOI)
Temperature  
Mean Temperature 8 °F -  
Max Temperature 14 °F 39 °F 57 °F (2000)
Min Temperature 1 °F 26 °F -28 °F (1888)
Degree Days  
Heating Degree Days 58    
Moisture  
Dew Point 1 °F    
Average Humidity 74    
Maximum Humidity 85    
Minimum Humidity 66    
Precipitation  
Precipitation 0.00 in - - ()
Sea Level Pressure  
Sea Level Pressure 30.76 in    
Wind  
Wind Speed 1 mph (WSW)    
Max Wind Speed 6 mph    
Max Gust Speed -    
Visibility 2 miles    
Events      
Averages and records for this station are not official NWS values.
T = Trace of Precipitation, MM = Missing Value Source: NWS Daily Summary

Daily Weather History Graph

Daily Weather History Graph

Search for Another Location

Airport or City:

Trip Planner

Search our weather history database for the weather conditions in past years. The results will help you decide how hot, cold, wet, or windy it might be!

Date:

Astronomy

Jan. 16, 2013 Rise Set
Actual Time 8:16 AM MST 5:37 PM MST
Civil Twilight 7:44 AM MST 6:08 PM MST
Nautical Twilight 7:09 AM MST 6:44 PM MST
Astronomical Twilight 6:34 AM MST 7:18 PM MST
Moon 10:42 AM MST (1/16) 11:46 PM MST (1/16)
Length of Visible Light 10h 24m
Length of Day
9h 20m
Waxing Crescent, 29% of the Moon is Illuminated
Jan 16
Waxing Crescent
Jan 18
First Quarter
Jan 26
Full
Feb 3
Last Quarter
Feb 10
New

Hourly Weather History & Observations

Time (MST) Temp. Windchill Dew Point Humidity Pressure Visibility Wind Dir Wind Speed Gust Speed Precip Events Conditions
12:15 AM 5.0 °F - -2.2 °F 72% 30.72 in 4.0 mi Calm Calm - N/A   Overcast
12:35 AM 6.8 °F -0.1 °F -0.4 °F 72% 30.72 in 7.0 mi SE 3.5 mph - N/A   Overcast
12:55 AM 6.8 °F -2.0 °F -0.4 °F 72% 30.73 in 8.0 mi SE 4.6 mph - N/A   Overcast
1:15 AM 6.8 °F - -2.2 °F 67% 30.73 in 7.0 mi Calm Calm - N/A   Overcast
1:35 AM 6.8 °F -0.1 °F -2.2 °F 67% 30.73 in 7.0 mi SE 3.5 mph - N/A   Overcast
1:55 AM 6.8 °F - -2.2 °F 67% 30.74 in 9.0 mi Calm Calm - N/A   Overcast
2:15 AM 5.0 °F - -2.2 °F 72% 30.74 in 7.0 mi Calm Calm - N/A   Overcast
2:35 AM 1.4 °F - -7.6 °F 66% 30.74 in 6.0 mi Calm Calm - N/A   Overcast
2:55 AM 3.2 °F - -5.8 °F 66% 30.75 in 6.0 mi Calm Calm - N/A   Overcast
3:35 AM 3.2 °F - -5.8 °F 66% 30.76 in 5.0 mi Calm Calm - N/A   Overcast
3:55 AM 1.4 °F - -7.6 °F 66% 30.76 in 5.0 mi Calm Calm - N/A   Overcast
4:15 AM 1.4 °F - -5.8 °F 72% 30.76 in 5.0 mi Calm Calm - N/A   Overcast
4:35 AM 1.4 °F - -5.8 °F 72% 30.75 in 5.0 mi Calm Calm - N/A   Mostly Cloudy
4:55 AM 1.4 °F - -7.6 °F 66% 30.75 in 5.0 mi Calm Calm - N/A   Partly Cloudy
5:15 AM 1.4 °F - -5.8 °F 72% 30.75 in 3.0 mi Calm Calm - N/A   Mostly Cloudy
5:35 AM 1.4 °F - -4.0 °F 78% 30.75 in 0.2 mi Calm Calm - N/A   Overcast
5:55 AM 3.2 °F - -4.0 °F 72% 30.75 in 0.2 mi Calm Calm - N/A   Overcast
6:15 AM 3.2 °F - -2.2 °F 78% 30.74 in 0.2 mi Calm Calm - N/A   Overcast
6:35 AM 3.2 °F - -2.2 °F 78% 30.74 in 0.2 mi Calm Calm - N/A   Overcast
6:55 AM 5.0 °F - -2.2 °F 72% 30.75 in 0.2 mi Calm Calm - N/A   Overcast
7:15 AM 5.0 °F - -0.4 °F 78% 30.75 in 0.2 mi Calm Calm - N/A   Overcast
7:35 AM 3.2 °F - -2.2 °F 78% 30.75 in 0.2 mi Calm Calm - N/A   Overcast
7:55 AM 3.2 °F - -2.2 °F 78% 30.76 in 0.2 mi Calm Calm - N/A   Overcast
8:15 AM 5.0 °F - -2.2 °F 72% 30.76 in 0.2 mi Calm Calm - N/A   Overcast
8:35 AM 5.0 °F - -2.2 °F 72% 30.77 in 0.2 mi Calm Calm - N/A   Overcast
8:55 AM 6.8 °F - -0.4 °F 72% 30.78 in 0.2 mi Calm Calm - N/A   Overcast
9:15 AM 6.8 °F - -0.4 °F 72% 30.79 in 0.5 mi Calm Calm - N/A   Overcast
9:35 AM 6.8 °F - -0.4 °F 72% 30.80 in 0.8 mi Calm Calm - N/A   Overcast
9:55 AM 6.8 °F - -0.4 °F 72% 30.80 in 1.0 mi Calm Calm - N/A   Overcast
10:15 AM 6.8 °F - -0.4 °F 72% 30.80 in 1.8 mi Calm Calm - N/A   Overcast
10:35 AM 6.8 °F - -0.4 °F 72% 30.81 in 2.0 mi Calm Calm - N/A   Overcast
10:55 AM 6.8 °F - 1.4 °F 79% 30.80 in 1.5 mi Calm Calm - N/A   Overcast
11:15 AM 8.6 °F - 3.2 °F 79% 30.80 in 1.2 mi Calm Calm - N/A   Overcast
11:35 AM 10.4 °F - 5.0 °F 79% 30.80 in 1.0 mi Calm Calm - N/A   Overcast
12:15 PM 12.2 °F - 6.8 °F 79% 30.78 in 1.2 mi Calm Calm - N/A   Overcast
12:35 PM 12.2 °F - 5.0 °F 73% 30.78 in 1.2 mi Calm Calm - N/A   Overcast
1:15 PM 12.2 °F - 6.8 °F 79% 30.76 in 1.8 mi Calm Calm - N/A   Overcast
1:35 PM 12.2 °F 6.1 °F 6.8 °F 79% 30.76 in 2.0 mi North 3.5 mph - N/A   Overcast
1:55 PM 12.2 °F - 6.8 °F 79% 30.76 in 2.0 mi Calm Calm - N/A   Overcast
2:15 PM 12.2 °F - 8.6 °F 85% 30.75 in 2.0 mi Calm Calm - N/A   Overcast
2:35 PM 14.0 °F - 8.6 °F 79% 30.75 in 2.0 mi Calm Calm - N/A   Overcast
2:55 PM 14.0 °F 8.2 °F 8.6 °F 79% 30.75 in 2.0 mi North 3.5 mph - N/A   Overcast
3:15 PM 14.0 °F - 8.6 °F 79% 30.75 in 2.5 mi Calm Calm - N/A   Overcast
3:35 PM 14.0 °F 8.2 °F 6.8 °F 73% 30.75 in 3.0 mi West 3.5 mph - N/A   Overcast
3:55 PM 12.2 °F 4.3 °F 6.8 °F 79% 30.75 in 3.0 mi WSW 4.6 mph - N/A   Scattered Clouds
4:15 PM 12.2 °F - 6.8 °F 79% 30.74 in 3.0 mi Calm Calm - N/A   Clear
4:55 PM 12.2 °F 6.1 °F 6.8 °F 79% 30.75 in 3.0 mi WSW 3.5 mph - N/A   Partly Cloudy
5:15 PM 12.2 °F 6.1 °F 6.8 °F 79% 30.75 in 3.0 mi WSW 3.5 mph - N/A   Partly Cloudy
5:35 PM 12.2 °F 6.1 °F 5.0 °F 73% 30.75 in 3.0 mi WSW 3.5 mph - N/A   Mostly Cloudy
5:55 PM 12.2 °F 4.3 °F 6.8 °F 79% 30.74 in 3.0 mi WSW 4.6 mph - N/A   Overcast
6:15 PM 10.4 °F 0.8 °F 5.0 °F 79% 30.75 in 4.0 mi West 5.8 mph - N/A   Overcast
6:35 PM 8.6 °F -1.3 °F 1.4 °F 73% 30.75 in 3.0 mi WNW 5.8 mph - N/A   Overcast
6:55 PM 8.6 °F 2.0 °F 3.2 °F 79% 30.75 in 3.0 mi West 3.5 mph - N/A   Overcast
7:15 PM 10.4 °F 4.0 °F 3.2 °F 73% 30.75 in 2.5 mi West 3.5 mph - N/A   Overcast
7:35 PM 8.6 °F 2.0 °F 3.2 °F 79% 30.75 in 2.5 mi WNW 3.5 mph - N/A   Overcast
7:55 PM 8.6 °F - 1.4 °F 73% 30.76 in 2.5 mi Calm Calm - N/A   Overcast
8:15 PM 8.6 °F - 1.4 °F 73% 30.76 in 2.0 mi Calm Calm - N/A   Overcast
8:35 PM 8.6 °F - 1.4 °F 73% 30.76 in 1.5 mi Calm Calm - N/A   Overcast
8:55 PM 6.8 °F - -0.4 °F 72% 30.76 in 1.0 mi Calm Calm - N/A   Overcast
9:15 PM 5.0 °F - -2.2 °F 72% 30.76 in 1.5 mi Calm Calm - N/A   Overcast
9:35 PM 6.8 °F - -0.4 °F 72% 30.76 in 1.8 mi Calm Calm - N/A   Overcast
9:55 PM 3.2 °F -4.2 °F -2.2 °F 78% 30.76 in 1.5 mi SE 3.5 mph - N/A   Overcast
10:35 PM 3.2 °F - -5.8 °F 66% 30.76 in 1.2 mi Calm Calm - N/A   Overcast
10:55 PM 3.2 °F - -2.2 °F 78% 30.76 in 1.5 mi Calm Calm - N/A   Overcast
11:15 PM 6.8 °F - -0.4 °F 72% 30.76 in 0.2 mi Calm Calm - N/A   Overcast
11:35 PM 6.8 °F - 1.4 °F 79% 30.76 in 0.2 mi Calm Calm - N/A   Overcast
11:55 PM 6.8 °F -0.1 °F 1.4 °F 79% 30.76 in 0.5 mi East 3.5 mph - N/A   Overcast